sat.trackr.live / text

‹ back to catalog

ONEWEB-0204

NORAD 48225 · 2021-031R

PAYLOAD ACTIVE UNKNOWN

§ Identity

Operator
Country
UK
Launch date
2021-04-25
Launch site
VOSTO
Launch vehicle
Mass (kg)
RCS (m²)

Purposes: comms

External: N2YO · Heavens-Above · Gunter

§ Orbital elements

Epoch: 2026-05-25T04:11:39.588000Z

Period
109.55 min
Inclination
87.8944°
Eccentricity
0.0002122
Mean motion
13.14500512 rev/d
Perigee alt
1,204.2 km
Apogee alt
1,207.4 km
Semi-major
7,583.9 km
B*
3.5247e-4
RAAN
294.2923°
Arg perigee
100.2821°
Mean anomaly
259.8548°
Rev number
24,523

§ Raw data

ONEWEB-02041 48225U 21031R   26145.17476375  .00000143  00000+0  35247-3 0  99972 48225  87.8944 294.2923 0002122 100.2821 259.8548 13.14500512245234

JSON: /api/v1/satellites/48225 · /tle

For live sub-satellite position, see the globe view (requires WebGL).

§ Visibility from observer

Set your observer location to see the next 7 days of passes ≥ 10°. The values pass through the URL so the page stays shareable.

No JS? Fill the form by hand. The geolocation button needs JavaScript.